Race Results for
La Tierra Torture
Santa Fe, NM
(Event Information)
Cross Country on 05/02/2010

Note: Ranking points are NOT upgrade points. An explanation of ranking points can be found here.


Men - Singlespeed

 Place Points NameCity, StateTime USAC #BibTeam
1Michael Raney   1:28:41  119 
2504.30Casey Cook   Edgewood, NM1:31:40 7636  104 
3508.58Nicholas Lemke   Albuquerque, NM1:32:47 202433  115 
4512.87Anthony Petta   El Paso, TX1:34:30 116986  118 
5Aaron Gulley   1:36:03  109 
6Tyson Brown   1:36:16  103 
7525.72Dorian Blanco   Albuquerque, NM1:36:49 296750  102 
8530.01Paul Trotman   Albuquerque, NM1:36:49 201143  127 
9534.29Joshua Torres   Belen, NM1:39:04 263161  126 
10 Jeff Humberson   1:40:41  111 
11542.86Leonard Goodell   Albuquerque, NM1:42:23 221660  108 
12Jeff Perner   1:44:25  117 
13Scott Hampert   1:44:27  130 
14555.72Tarik Saleh   Los Alamos, NM1:45:06 106920  120 
15Scott Larson   1:45:58  114 
16564.29David Hughes   Albuquerque, NM1:46:33 113667  110 
17568.57Jeff Huser   Albuquerque, NM1:47:41 17240  112 
18Brian Scott   1:48:22  121 
19577.14craig smith   Albuquerque, NM1:51:16 308496  123 
20 Christopher Bettis   1:51:20  101 
21585.71Rico Smith   Las Cruces, NM2:07:40 277006  124 
22590.00JJ Torres   Belen, NM2:11:22 308643  125 

Men - Pro

 Place Points NameCity, StateTime USAC #BibTeam
1328.87Michael McCalla   Santa Fe, NM2:01:09 23198  
2343.49Damian Calvert   Albuquerque, NM2:05:13 81251  
3358.10Cameron Brenneman   Santa Fe, NM2:05:41 4755  
4372.72Jens Nielsen   Durango, CO2:12:13 144898  
5387.34Jason Quenzler   Durango, CO2:16:23 82358  
6Blake Harlan   2:19:29  67 

Men - Cat 1 - Junior - 1-18

 Place Points NameCity, StateTime USAC #BibTeam
1Lewis Gaffney   Angel Fire, NM2:14:33 247368  63 
2Jay Yu   Elpaso, TX2:37:32 306674  64 

Men - Cat 1 - Senior - 19-29

 Place Points NameCity, StateTime USAC #BibTeam
1Peter O'Donnell   2:11:06  68 
2510.65Alexander Leonard   Flagstaff, AZ2:18:40 253218  10 
3522.01logan ross   Las Cruces, NM2:23:37 292983  12 
4533.36Kyle Shour   Albuquerque, NM2:26:46 234308  13 
5544.71Colin Lewis   Las Cruces, NM2:34:18 277553  11 
6556.07Jesse Dirnberger   Edgewood, NM2:41:42 276952  

Men - Cat 1 - Senior - 30-39

 Place Points NameCity, StateTime USAC #BibTeam
1468.33John Searles   Albuquerque, NM2:10:37 282966  26 
2Juan Hernandez   2:15:40  66 
3485.71Chuck Whitney   Gallup, NM2:17:17 225646  29 
4494.40Jay English   Albuquerque, NM2:21:03 246241  16 
5503.09Brett Hawkins   Los Alamos, NM2:21:44 289000  19 
6511.78Andrew Black   Albuquerque, NM2:23:34 262562  14 
7520.47Marty Moriarty   Albuquerque, NM2:27:56 25084  24 
8529.16Kevin Ledwith   Albuquerque, NM2:28:26 294277  21 
9537.86Lawrence Herrera   Albuquerque, NM2:28:51 275724  20 
10Dylan Harp   2:29:13  18 
11555.24Richard Murdock   Las Cruces, NM2:30:33 25455  25 
12563.93Daniel Swinton   Albuquerque, NM2:30:58 86276  27 
13572.62Dan Meyers   Santa Fe, NM2:31:45 300386  23 
14581.31Ediberto Cobos   El Paso, TX2:38:06 295196  15 
15590.00Michael Wagener   Taos, NM2:44:11 279657  28 
DNFJacob Gonzales   Taos, NMDNF 245268  17 

Men - Cat 1 - Senior - 40-49

 Place Points NameCity, StateTime USAC #BibTeam
1431.65Bret Bernard   Cochiti Lake, NM2:19:23 147082  47 
2 Tony Farrar   2:19:38  48 
3456.01Steven Yore   Golden Valley, MN2:20:35 39241  46 
4468.19Nickolas Starkey   Colorado Springs, CO2:21:21 280796  42 
5480.37Christopher Casey   Placitas, NM2:21:50 135137  32 
6492.55Michael Archibeck   Albuquerque, NM2:22:52 257569  30 
7504.74Todd Resch   Albuquerque, NM2:24:27 294275  41 
8516.92Peter Tempest   Gallup, NM2:28:13 102793  44 
9529.10Michael Mangan   Albuquerque, NM2:29:00 223915  35 
10541.28T Clay Moseley   Los Alamos, NM2:34:13 25211  38 
11553.46Marcus Leibrecht   Los Alamos, NM2:35:13 233342  34 
12 Todd Kurth   2:39:45  33 
13577.82William Steffen   El Paso, TX2:41:08 33949  43 
14590.00Warren Oldham   Los Alamos, NM2:43:14 205138  40 
DNFRich Walters   Albuquerque, NMDNF 95845  45 

Men - Cat 1 - Senior - 50-99

 Place Points NameCity, StateTime USAC #BibTeam
1515.85Mike Szabo   Boca Raton, FL2:26:28 34874  56 
2521.54Douglas Schneebeck   Albuquerque, NM2:26:56 104705  55 
3527.23James (Jimmy) Day   Santa Fe, NM2:30:16 8894  51 
4532.92Jan Bear   Santa Fe, NM2:30:23 237003  49 
5538.61Brian Hughes   Albuquerque, NM2:36:07 243015  53 
6544.30Pat Caldwell   Albuquerque, NM2:38:19 122977  50 
7549.99Ken Gauthier   Pittsfield Ma2:47:03 221507  52 

Men - Cat 2 - Junior - 1-18

 Place Points NameCity, StateTime USAC #BibTeam
1499.45Orion Staples   Losalamos, NM1:44:39 291769  288 
2Kaden Murdock   2:07:59  287 
3Benjamin Corona   2:13:45  284 
4590.00Caleb Maher   Arroyo Seco, NM2:36:03 278448  286 

Men - Cat 2 - Senior - 19-29

 Place Points NameCity, StateTime USAC #BibTeam
1Luis Gutierrez   1:39:24  295 
2Alfonso Sandoval   1:39:39  294 
3Donald Mercer   1:43:30  208 
4Mark Castelo   1:45:19  201 
5562.22Brent Gillespie   Albuquerque, NM1:49:28 308429  204 
6Isaac Garcia   1:49:37  291 
7Lee Charles   1:50:45  202 
9578.89Paul Sadler   Las Cruces, NM1:58:29 310814  210 
10David Garcia   2:06:37  203 
11Joshua Chavez   1:23:00  290 

Men - Cat 2 - Senior - 30-39

 Place Points NameCity, StateTime USAC #BibTeam
1459.07Kevin Ormerod   El Prado, NM1:37:50 183485  225 
2465.96Scott Spangler   Albuquerque, NM1:38:41 259921  228 
3472.85Clay Fawthorp   West Chester , PA1:38:58 183670  216 
4479.74jeremy milligan   Albuquerque, NM1:41:04 306136  223 
5486.63Richard Triplett   Los Alamos, NM1:42:00 236998  229 
6493.53Gustavo Fierro   El Paso, TX1:44:17 308727  217 
7500.42James Love   Albuquerque, NM1:44:34 277227  221 
8507.31Michael Barrow   Las Cruces, NM1:47:41 301638  212 
9514.20Gregory Cavanaugh   Gallup, NM1:48:33 310010  215 
10Mark Smith-Nelson   1:48:48  227 
11Jorge Sandoval   1:50:14  296 
12Thomas Bell   1:55:29  213 
13541.76William Martinez   Las Cruces, NM1:56:26 291527   
14Patrick Lynch   1:56:49  222 
15sean wilson   2:00:06  231 
16 Pedro Murge   2:10:41  232 
17Eytan Krasilovsky   2:11:43  220 
18Derrick Buffington   2:16:53  214 
19Mark Mulholland   2:18:30  224 
20Humberto Gonzalez   3:12:20  218 
DNFDaniel Holz   DNF  298 

Men - Cat 2 - Senior - 40-49

 Place Points NameCity, StateTime USAC #BibTeam
1483.51Richard Capener   Albuquerque, NM1:34:50 309900  236 
2488.14Christopher Dineen   Albuquerque, NM1:35:54 278010  239 
3Robert Romero   1:36:55  254 
4Alfredo Nunez   1:39:05  293 
5John Harness   1:39:11  244 
6506.66dustyn ladewig   Albuquerque, NM1:42:20 299796  247 
7511.29Jeremy Smith   Albuquerque, NM1:44:26 308856  226 
8515.92Carlos McGarity   El Prado, NM1:46:14 295532  250 
9520.55Vernon Abeyta   Albuquerque, NM1:46:23 298812  233 
10pete stilwell   1:47:01  257 
11David Jodan   1:47:44  246 
12534.44John Stadick   Santa Fe, NM1:48:01 154386  255 
13David Yrigoyen   1:48:23  258 
14543.70Stefan Grande   Alamogordo, NM1:48:48 307801  241 
15Kirk Rhinehart   1:48:54  253 
16552.96Tim Gallegos   Albuquerque, NM1:49:04 276809  240 
17557.59Richard Rasmussen   Albuquerque, NM1:53:26 82967  252 
18David Hargis   1:56:43  243 
19 Curtis Boyd   2:10:44  235 
20Eric Manske   2:14:46  248 
21Dal Haynes   2:14:48  245 
22Rene Baez   2:25:50  234 
23Kenny Forrest   2:31:32  299 
24590.00Miguel Nunez   El Paso, TX3:05:44 272186  251 
DNFMark Martinez   DNF  249 

Men - Cat 2 - Senior - 50-99

 Place Points NameCity, StateTime USAC #BibTeam
1Jerry Little   1:43:34  264 
2545.56Brent Bonwell   Santa Fe, NM1:47:20 307144  260 
3brad peterson   1:47:38  267 
4Bernabe Lucero   1:51:08  265 
5562.22david bernstein   Losranchos, NM1:51:42 286363  259 
6Tim O'Donoghue   1:57:40  292 
7 Carl Gable   1:57:46  319 
8578.89JAVIER SOLIZ   Las Cruces, NM1:59:18 288657  268 
9584.44Robert Cipoletti   Albuquerque, NM1:59:33 275479  261 
10 Mark Edwards   2:10:49  262 
DNFDouglas Young   DNF  269 

Men - Cat 3 - Senior - 19-29

 Place Points NameCity, StateTime USAC #BibTeam
1540.00Curtis Tafoya   Albuquerque, NM1:02:29 297560  305 
2Joseph Kester   1:04:37  301 
3Able Raymond   1:06:05  304 
4Manuel Vigil   1:06:52  306 
5Nicholas Peterson   1:08:21  302 
6590.00Jonathan Polonsky   Santafe, NM1:12:07 309709  303 

Men - Cat 3 - Senior - 30-39

 Place Points NameCity, StateTime USAC #BibTeam
1540.00Jorge Silva   Santafe, NM0:57:51 309710  310 
2556.67Mark Trejtnar   Albuquerque, NM1:00:19 190764  311 
3Drey Fisher   1:06:59  309 
4chris atencio   1:14:34  308 

Men - Cat 3 - Senior - 40-49

 Place Points NameCity, StateTime USAC #BibTeam
1anthony lopez   0:54:44  315 
2552.50Thomas Herbert   El Paso, TX0:57:37 114090  314 
3 Michael Garcia   0:59:00  312 
4Shane Quintana   1:07:58  316 
5 Sann Gossum   1:27:14  313 

Men - Cat 3 - Senior - 50 -99

 Place Points NameCity, StateTime USAC #BibTeam
1william johnson   0:55:01  322 
2Paul Graham   1:00:46  321 
3556.67Richard Dirnberger   Edgewood, NM1:06:10 292593  318 
4Arvid Lundy   1:10:38  323 
5Milan Zeman   1:15:06  326 
6Fred Shelley   1:20:38  324 
7John Veilleux   1:26:37  325 

Women - Singlespeed

 Place Points NameCity, StateTime USAC #BibTeam
1Virginia Fretz   1:57:00  128 
2Cheryl Holloway   Santa Fe, NM2:26:32 269464  129 

Women - Pro

 Place Points NameCity, StateTime USAC #BibTeam
1Nina Baum   Albuquerque, NM2:28:22 180986  

Women - Cat 1 - Senior - 40-49

 Place Points NameCity, StateTime USAC #BibTeam
1 Kristin Edwards   2:45:12  58 
2565.00Caroline Colonna   Taos, NM2:49:32 117084  57 
3590.00Karen Ortiz   Rio Rancho, NM2:55:57 178347  61 

Women - Cat 1 - Senior - 50-99

 Place Points NameCity, StateTime USAC #BibTeam
1Kim Bear   Santa Fe, NM3:13:39 82996  62 
2Kate Prusack   3:24:10  65 

Women - Cat 2 - Junior - 1-18

 Place Points NameCity, StateTime USAC #BibTeam
1Carolina McGarity   El Prado, NM2:33:29 295533  289 

Women - Cat 2 - Senior - 19-29

 Place Points NameCity, StateTime USAC #BibTeam
1Holly Borowski   Boulder, CO2:03:24 188263  270 
2Lisa Sadler   Las Cruces, NM2:06:37 310828  271 
DNFKatherine Chinn   DNF  200 

Women - Cat 2 - Senior - 30-39

 Place Points NameCity, StateTime USAC #BibTeam
1540.00Trish Parker   Highlands, NC1:46:09 276875  273 
2Delania Sather   2:22:08  274 
3A Spitzer   2:23:45  275 

Women - Cat 2 - Senior - 40-49

 Place Points NameCity, StateTime USAC #BibTeam
1laurie mauderly   1:49:33  278 
2 Tanya Bettis   1:49:39  276 
3Susie Edwinson   2:06:56  277 
4Stacy McClurg   2:13:55  279 
5Tiffany Kenny   2:17:16  300 

Women - Cat 2 - Senior - 50-99

 Place Points NameCity, StateTime USAC #BibTeam
1540.00patricia peck   Santa Fe, NM2:10:32 277797  282 
2Sheila Senft   2:15:16  283 
3Kerry Dalen   2:33:49  281 
4Jeanette Brasher   3:02:30  280 

Women - Cat 3 - Senior - 19-29

 Place Points NameCity, StateTime USAC #BibTeam
1540.00Sarah Meyers   Santafe, NM1:14:22 309705  331 
2Wendy Barraza   1:29:37  327 
3Vivienne Beauchemin   2:28:24  330 

Women - Cat 3 - Senior - 30-39

 Place Points NameCity, StateTime USAC #BibTeam
1Rachel Weaver   1:02:40  337 
2552.50Liz Barrow   Las Cruces, NM1:04:02 310036  334 
3565.00Cindy Silva   Albuquerque, NM1:23:43 299700  336 
4577.50Sarah Fair   Albuquerque, NM1:27:44 273218  335 
5Valeriane Wilson   1:40:36  338 

Women - Cat 3 - Senior - 40-49

 Place Points NameCity, StateTime USAC #BibTeam
1Kim Meyer   1:13:19  340 

Report missing or incorrect license numbers

Volkswagen
Sierra NevadaBonk BreakerUSACDFShimanoSpy
UCI USA Cycling is the official governing body for all disciplines of competitive cycling in the United States. The 501c3, membership-based organization aims both to achieve sustained success in international cycling competition and to grow competitive cycling in America while delivering an exceptional customer experience.
View Children's Online Privacy Protection Policy
US Olympic Committee